EW1620 Weather Reports


time (UTC)temp
C
wind
direction
speed
KPH
gust
KPH
rain 1hr
cm
rain 24hr
cm
rain mn
cm
humidity
%
barometer
mb
20260505102026 13 299 0.0 4.8 0.00 0.05 0.05 68 1022.6
20260505101526 13 299 0.0 4.8 0.00 0.05 0.05 68 1022.5
20260505101023 14 301 0.0 3.2 0.00 0.05 0.05 68 1022.6
20260505100521 14 301 0.0 3.2 0.00 0.05 0.05 68 1022.5
20260505100022 14 301 0.0 1.6 0.00 0.05 0.05 68 1022.6
20260505095519 14 301 0.0 1.6 0.00 0.05 0.05 68 1022.5
20260505095019 14 301 0.0 0.0 0.00 0.05 0.05 68 1022.5
20260505094519 14 301 0.0 0.0 0.00 0.05 0.05 68 1022.5
20260505094022 14 301 0.0 1.6 0.00 0.05 0.05 68 1022.5
20260505093521 14 301 0.0 1.6 0.00 0.05 0.05 68 1022.5
20260505093022 14 301 0.0 1.6 0.00 0.05 0.05 68 1022.5
20260505092520 14 301 0.0 1.6 0.00 0.05 0.05 68 1022.6
20260505092021 14 301 0.0 1.6 0.00 0.05 0.05 68 1022.5
20260505091519 14 301 0.0 1.6 0.00 0.05 0.05 67 1022.5
20260505091017 14 301 0.0 1.6 0.00 0.05 0.05 67 1022.5
20260505090518 14 301 0.0 1.6 0.00 0.05 0.05 67 1022.4
20260505090017 14 301 0.0 1.6 0.00 0.05 0.05 67 1022.4
20260505085516 14 301 0.0 1.6 0.00 0.05 0.05 67 1022.3
20260505085017 14 301 0.0 4.8 0.00 0.05 0.05 67 1022.2
20260505084519 14 301 0.0 4.8 0.00 0.05 0.05 66 1022.2
20260505084014 14 301 0.0 3.2 0.00 0.05 0.05 66 1022.2
20260505083515 14 301 0.0 3.2 0.00 0.05 0.05 66 1022.1
20260505083017 15 301 0.0 3.2 0.00 0.05 0.05 66 1022.1
20260505082513 15 301 0.0 3.2 0.00 0.05 0.05 66 1022.1
20260505082012 15 306 0.0 3.2 0.00 0.05 0.05 66 1022.1
20260505081612 15 306 0.0 3.2 0.00 0.05 0.05 65 1022.0
20260505081016 15 306 0.0 1.6 0.00 0.05 0.05 65 1021.9
20260505080513 15 306 0.0 1.6 0.00 0.05 0.05 65 1021.9
20260505080026 15 306 0.0 1.6 0.00 0.05 0.05 65 1021.8
20260505075509 15 306 0.0 1.6 0.00 0.05 0.05 65 1021.7
20260505075016 15 306 0.0 3.2 0.00 0.05 0.05 65 1021.7
20260505074508 15 306 0.0 3.2 0.00 0.05 0.05 65 1021.7
20260505074007 15 306 0.0 3.2 0.00 0.05 0.05 65 1021.6
20260505073504 15 306 0.0 3.2 0.00 0.05 0.05 65 1021.6
20260505073003 15 306 1.6 6.4 0.00 0.05 0.05 65 1021.5
20260505072502 15 298 1.6 6.4 0.00 0.05 0.05 65 1021.5
20260505072002 15 301 0.0 4.8 0.00 0.05 0.05 64 1021.4
20260505071605 15 291 1.6 4.8 0.00 0.05 0.05 64 1021.4
20260505071001 15 302 0.0 3.2 0.00 0.05 0.05 64 1021.4
20260505070601 15 302 0.0 11.3 0.00 0.05 0.05 64 1021.4
20260505070100 15 302 1.6 11.3 0.00 0.05 0.05 63 1021.3
20260505065600 15 301 1.6 6.4 0.00 0.08 0.05 63 1021.3
20260505065101 15 264 1.6 6.4 0.00 0.08 0.05 63 1021.2
20260505064604 15 240 0.0 6.4 0.00 0.08 0.05 64 1021.2
20260505064058 15 257 0.0 6.4 0.00 0.08 0.05 63 1021.2
20260505063558 15 244 0.0 6.4 0.00 0.08 0.05 63 1021.2
20260505063056 15 269 1.6 8.0 0.00 0.08 0.05 63 1021.1
20260505062555 15 279 1.6 12.9 0.00 0.08 0.05 62 1021.2
20260505062054 15 282 3.2 16.1 0.00 0.08 0.05 63 1021.2
20260505061553 15 279 3.2 14.5 0.00 0.08 0.05 64 1021.1
20260505061051 15 279 1.6 6.4 0.00 0.08 0.05 65 1021.1
20260505060551 15 277 0.0 6.4 0.00 0.08 0.05 65 1021.1
20260505060051 15 270 3.2 8.0 0.00 0.08 0.05 64 1021.0
20260505055551 15 263 1.6 8.0 0.00 0.08 0.05 64 1021.0
20260505055053 15 209 1.6 8.0 0.00 0.08 0.05 64 1020.9
20260505054558 15 259 3.2 11.3 0.00 0.08 0.05 64 1020.8
20260505054048 15 269 3.2 8.0 0.00 0.08 0.05 65 1020.9
20260505053548 15 242 1.6 6.4 0.00 0.08 0.05 65 1020.8
20260505053102 15 250 1.6 9.7 0.00 0.08 0.05 65 1020.7
20260505052548 15 274 1.6 9.7 0.00 0.08 0.05 65 1020.7
20260505052048 15 237 1.6 8.0 0.00 0.08 0.05 65 1020.7
20260505051548 15 180 0.0 4.8 0.00 0.08 0.05 65 1020.6
20260505051048 15 244 0.0 8.0 0.00 0.08 0.05 65 1020.5
20260505050548 15 223 3.2 12.9 0.00 0.08 0.05 64 1020.6
20260505041646 16 236 3.2 12.9 0.00 0.08 0.05 62 1020.1
20260505041045 16 298 6.4 12.9 0.00 0.08 0.05 62 1020.0
20260505040546 16 267 3.2 12.9 0.00 0.08 0.05 62 1020.0
20260505040045 16 287 6.4 12.9 0.00 0.08 0.05 62 1020.0
20260505035545 16 275 6.4 14.5 0.00 0.08 0.05 62 1020.1
20260505035048 16 304 8.0 17.7 0.00 0.08 0.05 62 1020.0
20260505034547 16 286 6.4 17.7 0.00 0.08 0.05 62 1020.1
20260505034047 16 287 4.8 14.5 0.00 0.08 0.05 62 1020.0
20260505033545 16 224 3.2 14.5 0.00 0.08 0.05 62 1020.1
20260505033045 16 247 3.2 16.1 0.00 0.08 0.05 62 1020.1
20260505032547 16 244 8.0 16.1 0.00 0.08 0.05 61 1020.1
20260505032044 16 241 3.2 11.3 0.00 0.08 0.05 61 1020.1
20260505031544 16 244 3.2 9.7 0.00 0.08 0.05 61 1020.1
20260505031048 16 287 3.2 12.9 0.00 0.08 0.05 60 1020.1
20260505030546 16 291 4.8 14.5 0.00 0.08 0.05 60 1020.1
20260505030044 16 235 4.8 19.3 0.00 0.08 0.05 59 1020.1
20260505025544 17 238 4.8 12.9 0.00 0.08 0.05 59 1020.1
20260505025044 17 265 6.4 16.1 0.00 0.08 0.05 58 1020.1
20260505024547 17 284 8.0 16.1 0.00 0.08 0.05 58 1020.1
20260505024042 17 282 1.6 14.5 0.00 0.08 0.05 59 1020.1
20260505023543 17 281 4.8 22.5 0.00 0.08 0.05 59 1020.2
20260505023047 16 220 4.8 22.5 0.00 0.08 0.05 60 1020.2
20260505022542 16 239 6.4 19.3 0.00 0.08 0.05 60 1020.3
20260505022041 16 257 8.0 16.1 0.00 0.08 0.05 61 1020.3
20260505021641 16 242 4.8 16.1 0.00 0.08 0.05 61 1020.4
20260505021038 16 225 6.4 17.7 0.00 0.08 0.05 60 1020.5
20260505020537 16 278 6.4 14.5 0.00 0.08 0.05 61 1020.5
20260505020037 16 239 3.2 19.3 0.00 0.08 0.05 61 1020.6
20260505015536 16 235 9.7 19.3 0.00 0.08 0.05 61 1020.7
20260505015035 15 227 6.4 16.1 0.00 0.08 0.05 63 1020.6
20260505014541 15 207 4.8 16.1 0.00 0.08 0.05 64 1020.7
20260505014033 15 287 6.4 17.7 0.00 0.08 0.05 65 1020.7
20260505013534 15 255 3.2 14.5 0.00 0.08 0.05 66 1020.8
20260505013031 15 209 6.4 14.5 0.00 0.08 0.05 67 1020.9
20260505012528 14 311 3.2 17.7 0.00 0.08 0.05 67 1021.0
20260505012027 14 237 6.4 17.7 0.00 0.08 0.05 67 1021.0
20260505011526 13 270 4.8 16.1 0.00 0.08 0.05 69 1020.9
20260505011023 13 244 3.2 12.9 0.00 0.08 0.05 70 1020.9
20260505010523 13 291 3.2 11.3 0.00 0.08 0.05 70 1021.0
20260505010023 13 272 1.6 14.5 0.00 0.08 0.05 70 1021.0
20260505005522 13 245 6.4 14.5 0.00 0.08 0.05 69 1021.0
20260505005024 13 317 6.4 14.5 0.00 0.08 0.05 70 1021.0
20260505004523 13 257 3.2 20.9 0.00 0.08 0.05 70 1021.0
20260505004021 13 288 6.4 20.9 0.00 0.08 0.05 70 1021.0
20260505003530 13 286 3.2 14.5 0.00 0.08 0.05 70 1020.9
20260505003029 13 227 3.2 14.5 0.00 0.08 0.05 71 1020.8
20260505002531 13 282 4.8 14.5 0.00 0.08 0.05 71 1020.7
20260505002028 13 213 3.2 17.7 0.00 0.08 0.05 71 1020.6
20260505001535 13 206 8.0 20.9 0.00 0.08 0.05 71 1020.6
20260505001027 13 277 4.8 20.9 0.00 0.08 0.05 72 1020.5
20260505000527 13 269 8.0 17.7 0.00 0.08 0.05 71 1020.5
20260505000032 13 284 4.8 20.9 0.00 0.08 0.05 72 1020.4
20260504235526 13 229 6.4 20.9 0.00 0.08 0.05 72 1020.4
20260504235024 13 248 8.0 19.3 0.00 0.08 0.05 74 1020.3
20260504234524 13 224 3.2 12.9 0.00 0.08 0.05 75 1020.3
20260504234023 13 264 4.8 17.7 0.00 0.08 0.05 75 1020.2
20260504233510 13 263 6.4 17.7 0.00 0.08 0.05 76 1020.2
20260504233015 13 271 4.8 16.1 0.00 0.08 0.05 78 1020.2
20260504232507 13 242 3.2 16.1 0.00 0.08 0.05 80 1020.1
20260504232006 13 267 6.4 16.1 0.00 0.08 0.05 81 1020.1
20260504231518 12 290 4.8 9.7 0.00 0.08 0.05 83 1020.1
20260504231004 12 242 4.8 16.1 0.00 0.08 0.05 84 1020.1
20260504230504 12 272 6.4 16.1 0.00 0.08 0.05 85 1020.0
20260504230003 12 245 6.4 14.5 0.00 0.08 0.05 87 1020.0
20260504225502 12 264 1.6 14.5 0.00 0.08 0.05 88 1019.9
20260504225104 12 288 4.8 16.1 0.00 0.08 0.05 89 1019.9
20260504224600 11 281 4.8 16.1 0.00 0.08 0.05 89 1019.9
20260504224100 11 313 6.4 12.9 0.00 0.08 0.05 90 1019.8
20260504223555 11 272 3.2 9.7 0.00 0.08 0.05 90 1019.7
20260504223054 11 284 3.2 9.7 0.00 0.08 0.05 90 1019.6
20260504222555 11 302 1.6 6.4 0.00 0.08 0.05 90 1019.6
20260504222052 11 262 0.0 3.2 0.00 0.08 0.05 90 1019.5
20260504221558 11 262 0.0 3.2 0.00 0.08 0.05 90 1019.4
20260504221050 11 242 1.6 4.8 0.00 0.08 0.05 89 1019.3
20260504220549 11 240 1.6 4.8 0.00 0.08 0.05 89 1019.2
20260504220049 11 223 1.6 4.8 0.00 0.08 0.05 89 1019.1
20260504215548 11 257 0.0 3.2 0.00 0.08 0.05 89 1019.1
20260504215047 11 257 0.0 6.4 0.00 0.08 0.05 89 1019.0
20260504214546 11 253 1.6 11.3 0.03 0.08 0.05 89 1018.9
20260504214044 11 269 1.6 11.3 0.03 0.08 0.05 89 1018.7
20260504213545 11 236 0.0 4.8 0.03 0.08 0.05 89 1018.6
20260504213044 11 236 0.0 4.8 0.03 0.08 0.05 88 1018.5
20260504212541 11 254 0.0 3.2 0.05 0.08 0.05 88 1018.4
20260504212041 11 254 0.0 3.2 0.05 0.08 0.05 89 1018.3
20260504211548 11 238 0.0 6.4 0.05 0.08 0.05 89 1018.2
20260504211038 11 238 0.0 6.4 0.05 0.08 0.05 88 1018.0
20260504210537 11 274 0.0 1.6 0.05 0.08 0.05 88 1017.9
20260504210054 11 274 0.0 1.6 0.05 0.08 0.05 88 1017.9
20260504205537 11 274 0.0 1.6 0.05 0.08 0.05 88 1017.8
20260504205039 11 274 0.0 1.6 0.05 0.08 0.05 89 1017.9
20260504204543 11 274 0.0 1.6 0.03 0.05 0.05 89 1017.9
20260504204034 11 274 0.0 3.2 0.03 0.05 0.05 88 1017.8
20260504203534 11 274 0.0 11.3 0.03 0.05 0.05 88 1017.7
20260504203034 11 290 1.6 14.5 0.03 0.05 0.05 88 1017.6
20260504202532 11 276 3.2 14.5 0.00 0.05 0.03 88 1017.5
20260504202030 12 308 4.8 9.7 0.03 0.05 0.03 87 1017.4
20260504201531 12 309 1.6 9.7 0.03 0.05 0.03 87 1017.4
20260504201030 12 260 1.6 4.8 0.03 0.05 0.03 87 1017.2
20260504200530 12 285 0.0 3.2 0.03 0.05 0.03 87 1017.1
20260504200028 12 277 0.0 1.6 0.03 0.05 0.03 86 1017.1
20260504195527 12 277 0.0 4.8 0.03 0.05 0.03 86 1017.0
20260504195027 12 277 0.0 4.8 0.03 0.05 0.03 86 1016.9
20260504194539 12 281 0.0 6.4 0.03 0.05 0.03 86 1016.8
20260504194026 12 281 1.6 8.0 0.03 0.05 0.03 86 1016.7
20260504193523 12 287 1.6 8.0 0.03 0.05 0.03 86 1016.8
20260504193023 12 245 3.2 12.9 0.03 0.05 0.03 85 1016.7
20260504192521 12 261 3.2 12.9 0.03 0.05 0.03 85 1016.6
20260504192024 12 232 1.6 8.0 0.00 0.03 0.00 85 1016.6
20260504191520 12 254 1.6 6.4 0.00 0.03 0.00 84 1016.5
20260504191021 12 279 1.6 6.4 0.00 0.03 0.00 84 1016.4
20260504190523 12 279 1.6 6.4 0.00 0.03 0.00 84 1016.3
20260504190020 12 296 0.0 8.0 0.00 0.03 0.00 84 1016.2
20260504185521 12 293 3.2 8.0 0.00 0.03 0.00 84 1016.2
20260504185017 12 345 3.2 8.0 0.00 0.03 0.00 84 1016.2
20260504184517 12 294 1.6 9.7 0.00 0.03 0.00 84 1016.2
20260504184016 12 294 3.2 6.4 0.00 0.03 0.00 84 1016.1
20260504183521 12 286 1.6 6.4 0.00 0.03 0.00 84 1016.0
20260504183017 12 301 1.6 11.3 0.00 0.03 0.00 84 1015.8
20260504182517 12 309 3.2 9.7 0.00 0.03 0.00 84 1015.8
20260504182016 12 316 3.2 9.7 0.00 0.03 0.00 84 1015.8
20260504181515 12 299 3.2 11.3 0.00 0.03 0.00 84 1015.8
20260504181017 12 294 3.2 11.3 0.00 0.03 0.00 83 1015.7
20260504180515 12 274 3.2 11.3 0.00 0.03 0.00 83 1015.6
20260504180018 12 290 3.2 8.0 0.00 0.03 0.00 83 1015.6
20260504175512 12 292 3.2 11.3 0.00 0.03 0.00 83 1015.6
20260504175012 12 273 3.2 11.3 0.00 0.03 0.00 82 1015.5
20260504174512 12 279 1.6 6.4 0.00 0.03 0.00 82 1015.6
20260504174012 12 277 1.6 6.4 0.00 0.03 0.00 82 1015.5
20260504173510 12 279 0.0 3.2 0.00 0.03 0.00 82 1015.5
20260504173015 12 279 0.0 4.8 0.00 0.03 0.00 82 1015.5
20260504172510 12 279 1.6 9.7 0.00 0.03 0.00 82 1015.4
20260504172008 12 283 0.0 12.9 0.00 0.03 0.00 82 1015.4
20260504171508 12 273 3.2 12.9 0.00 0.03 0.00 82 1015.4
20260504171012 12 278 3.2 17.7 0.00 0.03 0.00 83 1015.4
20260504170508 12 292 8.0 17.7 0.00 0.03 0.00 83 1015.4
20260504151051 12 259 9.7 24.1 0.00 0.03 0.00 80 1014.5
20260504150550 12 289 6.4 20.9 0.00 0.03 0.00 80 1014.5
20260504141041 12 302 8.0 19.3 0.00 0.03 0.00 80 1014.0
20260504140540 12 275 9.7 24.1 0.00 0.03 0.00 80 1013.9
20260504130540 12 288 8.0 19.3 0.00 0.03 0.03 81 1014.0
20260504110525 13 281 4.8 14.5 0.00 0.03 0.03 80 1012.8